Location: Brno
(49.2000°N, 16.6330°E)
Time: 11:51:04
(UTC+02:00)

Cosmos 1603 - Visible Passes

Search period start: 23 October 2017 00:00
Search period end: 01 November 2017 23:00
Orbit: 831 x 859 km, 71.0° (Epoch: 22 October)

Date Brightness Start Highest point End Pass type
(mag) Time Alt. Az. Time Alt. Az. Time Alt. Az.
23 Oct 5.7 18:33:59 10° N 18:36:06 12° NNE 18:38:13 10° NE visible
23 Oct 4.5 20:16:42 10° NNW 20:21:08 36° NNE 20:21:08 36° NNE visible
23 Oct 5.8 22:00:51 10° NW 22:03:02 23° NW 22:03:02 23° NW visible
24 Oct 5.6 18:20:07 10° N 18:22:09 12° NNE 18:24:10 10° NE visible
24 Oct 4.4 20:02:47 10° NNW 20:07:42 36° NE 20:07:42 36° NE visible
24 Oct 5.5 21:46:54 10° NW 21:49:36 27° NW 21:49:36 27° NW visible
25 Oct 4.3 19:48:53 10° NNW 19:54:07 36° NE 19:54:18 36° NE visible
25 Oct 5.3 21:32:57 10° NW 21:36:13 32° WNW 21:36:13 32° WNW visible
26 Oct 4.3 19:34:58 10° NNW 19:40:11 35° NE 19:40:58 34° ENE visible
26 Oct 5.0 21:19:02 10° NW 21:22:53 38° WNW 21:22:53 38° WNW visible
27 Oct 4.4 19:21:03 10° NNW 19:26:15 34° NE 19:27:43 30° ENE visible
27 Oct 4.6 21:05:05 10° NW 21:09:38 45° W 21:09:38 45° W visible
28 Oct 4.4 19:07:08 10° NNW 19:12:18 34° NE 19:14:33 25° E visible
28 Oct 4.3 20:51:09 10° NW 20:56:28 52° WSW 20:56:28 52° WSW visible
29 Oct 4.4 17:53:14 10° NNW 17:58:22 33° NE 18:01:30 20° E visible
29 Oct 4.3 19:37:13 10° NW 19:42:46 53° WSW 19:43:25 50° SW visible
30 Oct 4.5 17:39:19 10° NNW 17:44:25 32° NE 17:48:36 14° ESE visible
30 Oct 4.3 19:23:17 10° NW 19:28:51 55° WSW 19:30:33 40° SSW visible
31 Oct 4.5 17:25:24 10° NNW 17:30:29 32° NE 17:35:34 10° ESE visible
31 Oct 4.3 19:09:20 10° NW 19:14:56 56° WSW 19:17:52 28° S visible
01 Nov 4.5 17:11:30 10° NNW 17:16:32 31° NE 17:21:35 10° ESE visible
01 Nov 4.2 18:55:25 10° NW 19:01:02 58° WSW 19:05:31 16° S visible
